Location: Long Barn
(38.0930°N, 120.1344°W)
Time: 09:30:34
(UTC+00:00)

ARIANE 6 FM1 Upper Stage - Visible Passes

Search period start: 12 October 2024 00:00
Search period end: 22 October 2024 00:00
Orbit: 563 x 594 km, 62.0° (Epoch: 11 October)

Date Brightness Start Highest point End Pass type
(mag) Time Alt. Az. Time Alt. Az. Time Alt. Az.
17 Oct 5.1 02:42:11 10° NNE 02:42:50 11° NNE 02:42:50 11° NNE visible
17 Oct 5.8 04:19:00 10° NNW 04:19:07 11° NNW 04:19:07 11° NNW visible
18 Oct 4.7 02:45:09 10° N 02:47:07 15° NNE 02:47:07 15° NNE visible
18 Oct 5.8 04:23:12 10° NW 04:23:25 11° NW 04:23:25 11° NW visible
19 Oct 4.3 02:48:44 10° N 02:51:29 21° NNE 02:51:29 21° NNE visible
19 Oct 5.9 04:27:32 10° NW 04:27:47 11° NW 04:27:47 11° NW visible
20 Oct 3.7 02:52:32 10° NNW 02:55:56 32° NNE 02:55:56 32° NNE visible
20 Oct 6.0 04:32:05 10° WNW 04:32:14 11° WNW 04:32:14 11° WNW visible
21 Oct 2.9 02:56:27 10° NNW 03:00:30 52° NE 03:00:30 52° NE visible
